Location: Newark
(49.3000°N, 9.4667°E)
Time: 13:36:35
(UTC+00:00)

Transit 2A Rocket - Pass Details

Date: 22 May 2019
Orbit: 587 x 917 km, 66.7° (Epoch: 24 June)

Event Time Altitude Azimuth Distance (km) Brightness Sun altitude
Rises 22:18:12 0° 315° (NW) 3,535 9.5 -18.9°
Reaches altitude 10° 22:21:55 10° 336° (NNW) 2,556 8.9 -19.1°
Maximum altitude 22:25:24 16° 13° (NNE) 2,123 8.1 -19.2°
Drops below altitude 10° 22:28:46 10° 49° (NE) 2,448 8.0 -19.3°
Sets 22:32:12 0° 71° (ENE) 3,311 8.4 -19.5°
